Flag for U.S.A. Weather past 2 weeks in Portland, Oregon, U.S.A.

Now
87 °F

Passing clouds.


Feels Like: 86 °F
Forecast: 61 / 88 °F
Wind: 10 mph from Northwest

Location: Portland International Airport

Current Time: Jul 29, 2014 at 3:28:03 PM

Latest Report: Jul 29, 2014 at 2:53 PM


Visibility: 10 mi

Pressure: 30.03 "Hg

Humidity: 37%

Dew point: 58 °F

Location of PortlandLocation

Historic Weather in Portland — Graph

°F

Portland temperature yesterday

Maximum temperature yesterday: 91 °F (at 4:53 PM)
Minimum temperature yesterday: 64 °F (at 5:53 AM)
Average temperature yesterday: 77 °F

Past Weeks' High & Low Weather Summary

 TemperatureHumidityPressure
High91 °F (Jul 28, 4:53 PM)96% (Jul 23, 11:03 AM)30.26 "Hg (Jul 23, 11:03 AM)
Low55 °F (Jul 25, 4:53 AM)27% (Jul 26, 4:53 PM)29.89 "Hg (Jul 16, 6:53 PM)
Average69 °F64%30.05 "Hg
* Reported Jul 14 1:53 PM — Jul 29 1:53 PM, Portland, Weather by CustomWeather, © 2014

Note: Actual official high and low records may vary slightly from our data, if they occured in-between our weather recording intervals... More about our weather records

Advertising

Portland weather history for previous 24 hours

 ConditionsComfort  
Time TempWeatherWind HumidityBarometerVisibility
1:53 PM
Jul 29
83 °FPassing clouds.8 mph43%30.05 "Hg10 mi
12:53 PM80 °FPassing clouds.7 mph45%30.07 "Hg10 mi
11:53 AM77 °FSunny.5 mph54%30.09 "Hg10 mi
10:53 AM73 °FSunny.8 mph59%30.10 "Hg10 mi
9:53 AM70 °FPassing clouds.3 mph64%30.10 "Hg10 mi
8:53 AM67 °FPassing clouds.5 mph68%30.11 "Hg10 mi
7:53 AM64 °FSunny.5 mph73%30.11 "Hg10 mi
6:53 AM63 °FSunny.6 mph75%30.10 "Hg10 mi
5:53 AM62 °FPassing clouds.6 mph75%30.09 "Hg10 mi
4:53 AM65 °FClear.3 mph66%30.08 "Hg10 mi
3:53 AM66 °FClear.6 mph63%30.06 "Hg10 mi
2:53 AM67 °FClear.5 mph61%30.06 "Hg10 mi
1:53 AM70 °FClear.No wind57%30.05 "Hg10 mi
12:53 AM71 °FClear.5 mph57%30.04 "Hg10 mi
11:53 PM
Jul 28
73 °FClear.3 mph57%30.03 "Hg10 mi
10:53 PM76 °FClear.9 mph52%30.03 "Hg10 mi
9:53 PM78 °FPassing clouds.12 mph54%30.02 "Hg10 mi
8:53 PM82 °FPassing clouds.10 mph46%30.00 "Hg10 mi
7:53 PM86 °FPassing clouds.14 mph42%29.99 "Hg10 mi
6:53 PM89 °FPassing clouds.14 mph34%29.98 "Hg10 mi
5:53 PM91 °FPassing clouds.10 mph32%29.99 "Hg10 mi
4:53 PM91 °FPassing clouds.8 mph32%30.00 "Hg10 mi
3:53 PM90 °FPassing clouds.12 mph34%30.01 "Hg10 mi
Weather by CustomWeather, © 2014

See weather overviewHow to use our weather pages